LPE104 SBRP-SBVT

Flight info

Callsign LPE104
Flight time 1h 10m
Altitude 39000
Route IVSUT DCT NITLU UZ16 EVPAD UZ35 KIGOK
Aircraft A20N/M-SDE2E3FGHIRWXY/LB1

Departure

Time 2026-04-26 06:44
Airport Leite Lopes Airport (SBRP)

Arrival

Time 2026-04-26 07:55
Airport Eurico de Aguiar Salles International Airport (SBVT)
Time Latitude Longitude Altitude Speed Heading
2026-04-26 06:25 -21.13940 -47.77573 1812 ft 0 kts 209°
2026-04-26 06:32 -21.13933 -47.77569 1812 ft 2 kts 204°
2026-04-26 06:32 -21.13922 -47.77564 1812 ft 2 kts 192°
2026-04-26 06:32 -21.13910 -47.77562 1812 ft 2 kts 176°
2026-04-26 06:32 -21.13898 -47.77564 1812 ft 2 kts 168°
2026-04-26 06:33 -21.13888 -47.77566 1812 ft 1 kts 167°
2026-04-26 06:33 -21.13881 -47.77568 1812 ft 1 kts 167°
2026-04-26 06:33 -21.13876 -47.77569 1812 ft 1 kts 167°
2026-04-26 06:33 -21.13870 -47.77571 1812 ft 1 kts 167°
2026-04-26 06:34 -21.13866 -47.77572 1812 ft 1 kts 168°
2026-04-26 06:34 -21.13860 -47.77573 1812 ft 1 kts 168°
2026-04-26 06:34 -21.13855 -47.77574 1812 ft 1 kts 168°
2026-04-26 06:34 -21.13856 -47.77574 1812 ft 0 kts 169°
2026-04-26 06:36 -21.13860 -47.77572 1812 ft 1 kts 151°
2026-04-26 06:36 -21.13861 -47.77567 1812 ft 1 kts 121°
2026-04-26 06:36 -21.13860 -47.77553 1812 ft 3 kts 88°
2026-04-26 06:36 -21.13851 -47.77518 1812 ft 6 kts 78°
2026-04-26 06:37 -21.13839 -47.77465 1812 ft 8 kts 47°
2026-04-26 06:37 -21.13780 -47.77466 1812 ft 10 kts 347°
2026-04-26 06:37 -21.13698 -47.77487 1811 ft 14 kts 345°
2026-04-26 06:37 -21.13596 -47.77524 1810 ft 17 kts 342°
2026-04-26 06:38 -21.13493 -47.77558 1809 ft 15 kts 342°
2026-04-26 06:38 -21.13383 -47.77594 1809 ft 17 kts 343°
2026-04-26 06:38 -21.13258 -47.77634 1808 ft 20 kts 343°
2026-04-26 06:38 -21.13155 -47.77667 1809 ft 14 kts 343°
2026-04-26 06:39 -21.13054 -47.77699 1807 ft 17 kts 343°
2026-04-26 06:39 -21.12933 -47.77737 1804 ft 17 kts 343°
2026-04-26 06:39 -21.12825 -47.77772 1808 ft 17 kts 343°
2026-04-26 06:39 -21.12711 -47.77809 1805 ft 15 kts 343°
2026-04-26 06:40 -21.12630 -47.77813 1808 ft 9 kts 27°
2026-04-26 06:40 -21.12589 -47.77775 1805 ft 0 kts 41°
2026-04-26 06:41 -21.12567 -47.77754 1805 ft 10 kts 41°
2026-04-26 06:41 -21.12538 -47.77698 1807 ft 3 kts 111°
2026-04-26 06:42 -21.12583 -47.77675 1806 ft 8 kts 161°
2026-04-26 06:42 -21.12585 -47.77674 1805 ft 0 kts 161°
2026-04-26 06:43 -21.12589 -47.77673 1805 ft 4 kts 161°
2026-04-26 06:44 -21.12904 -47.77569 1808 ft 94 kts 163°
2026-04-26 06:44 -21.13775 -47.77297 1824 ft 165 kts 163°
2026-04-26 06:44 -21.14992 -47.76936 2472 ft 186 kts 164°
2026-04-26 06:44 -21.16303 -47.76562 3251 ft 205 kts 164°
2026-04-26 06:45 -21.17688 -47.76093 4116 ft 210 kts 161°
2026-04-26 06:45 -21.19057 -47.75540 4860 ft 222 kts 158°
2026-04-26 06:45 -21.20569 -47.74946 5463 ft 242 kts 163°
2026-04-26 06:45 -21.22275 -47.74442 6055 ft 264 kts 165°
2026-04-26 06:46 -21.23992 -47.73568 6681 ft 281 kts 140°
2026-04-26 06:46 -21.25176 -47.71929 7572 ft 284 kts 114°
2026-04-26 06:46 -21.25582 -47.69854 8524 ft 287 kts 88°
2026-04-26 06:46 -21.25099 -47.67769 9438 ft 291 kts 62°
2026-04-26 06:47 -21.23827 -47.66062 10291 ft 297 kts 43°
2026-04-26 06:47 -21.22157 -47.64512 10709 ft 321 kts 40°
2026-04-26 06:47 -21.20466 -47.62842 11017 ft 343 kts 45°
2026-04-26 06:47 -21.18812 -47.60936 11695 ft 351 kts 49°
2026-04-26 06:48 -21.17206 -47.58866 12525 ft 356 kts 51°
2026-04-26 06:48 -21.15696 -47.56786 13310 ft 361 kts 54°
2026-04-26 06:48 -21.14402 -47.54490 14041 ft 367 kts 63°
2026-04-26 06:48 -21.13401 -47.51970 14660 ft 374 kts 69°
2026-04-26 06:49 -21.12479 -47.49337 15297 ft 380 kts 69°
2026-04-26 06:49 -21.11550 -47.46724 15896 ft 386 kts 68°
2026-04-26 06:49 -21.10572 -47.43997 16510 ft 392 kts 68°
2026-04-26 06:49 -21.09600 -47.41300 17097 ft 397 kts 68°
2026-04-26 06:50 -21.08586 -47.38489 17688 ft 403 kts 68°
2026-04-26 06:50 -21.07605 -47.35777 18225 ft 409 kts 68°
2026-04-26 06:50 -21.06574 -47.32931 18753 ft 412 kts 68°
2026-04-26 06:50 -21.05530 -47.30045 19336 ft 414 kts 68°
2026-04-26 06:51 -21.04496 -47.27187 19880 ft 417 kts 68°
2026-04-26 06:51 -21.02378 -47.21332 20966 ft 423 kts 68°
2026-04-26 06:51 -21.01334 -47.18450 21483 ft 426 kts 68°
2026-04-26 06:52 -21.00254 -47.15470 22013 ft 429 kts 68°
2026-04-26 06:52 -20.99183 -47.12516 22527 ft 432 kts 68°
2026-04-26 06:52 -20.98111 -47.09565 23025 ft 435 kts 68°
2026-04-26 06:52 -20.97012 -47.06539 23540 ft 438 kts 68°
2026-04-26 06:53 -20.95915 -47.03519 23950 ft 441 kts 68°
2026-04-26 06:53 -20.94796 -47.00441 24380 ft 444 kts 68°
2026-04-26 06:53 -20.93631 -46.97237 24801 ft 447 kts 68°
2026-04-26 06:53 -20.92492 -46.94107 25212 ft 450 kts 68°
2026-04-26 06:54 -20.91351 -46.90976 25603 ft 453 kts 68°
2026-04-26 06:54 -20.90208 -46.87845 26003 ft 455 kts 67°
2026-04-26 06:54 -20.89054 -46.84683 26395 ft 459 kts 68°
2026-04-26 06:54 -20.87891 -46.81498 26791 ft 461 kts 67°
2026-04-26 06:55 -20.86716 -46.78279 27167 ft 464 kts 67°
2026-04-26 06:55 -20.85529 -46.75028 27547 ft 467 kts 67°
2026-04-26 06:55 -20.84356 -46.71818 27901 ft 470 kts 67°
2026-04-26 06:55 -20.83153 -46.68529 28261 ft 473 kts 67°
2026-04-26 06:56 -20.81951 -46.65243 28626 ft 475 kts 67°
2026-04-26 06:56 -20.81157 -46.63075 28865 ft 477 kts 67°
2026-04-26 06:56 -20.79944 -46.59763 29193 ft 480 kts 67°
2026-04-26 06:56 -20.78725 -46.56438 29551 ft 482 kts 67°
2026-04-26 06:57 -20.77093 -46.51988 29997 ft 486 kts 67°
2026-04-26 06:57 -20.76272 -46.49754 30217 ft 488 kts 67°
2026-04-26 06:57 -20.75022 -46.46351 30529 ft 490 kts 67°
2026-04-26 06:57 -20.73770 -46.42945 30875 ft 492 kts 67°
2026-04-26 06:58 -20.72512 -46.39524 31216 ft 493 kts 67°
2026-04-26 06:58 -20.71310 -46.36072 31627 ft 494 kts 72°
2026-04-26 06:58 -20.70441 -46.32415 32079 ft 493 kts 79°
2026-04-26 06:58 -20.69986 -46.28791 32510 ft 492 kts 85°
2026-04-26 06:59 -20.69712 -46.25130 32951 ft 491 kts 85°
2026-04-26 06:59 -20.69430 -46.21526 33361 ft 490 kts 85°
2026-04-26 06:59 -20.69145 -46.17952 33766 ft 489 kts 85°
2026-04-26 06:59 -20.68857 -46.14361 34134 ft 488 kts 85°
2026-04-26 07:00 -20.68565 -46.10738 34476 ft 487 kts 85°
2026-04-26 07:00 -20.68279 -46.07184 34806 ft 486 kts 85°
2026-04-26 07:00 -20.67988 -46.03580 35119 ft 485 kts 85°
2026-04-26 07:00 -20.67696 -45.99978 35435 ft 485 kts 85°
2026-04-26 07:01 -20.67427 -45.96654 35733 ft 484 kts 85°
2026-04-26 07:01 -20.67136 -45.93073 36032 ft 483 kts 85°
2026-04-26 07:01 -20.66848 -45.89546 36351 ft 483 kts 85°
2026-04-26 07:01 -20.66556 -45.85971 36660 ft 482 kts 85°
2026-04-26 07:02 -20.66269 -45.82465 36934 ft 481 kts 85°
2026-04-26 07:02 -20.65975 -45.78896 37213 ft 481 kts 85°
2026-04-26 07:02 -20.65685 -45.75370 37499 ft 480 kts 85°
2026-04-26 07:02 -20.65392 -45.71827 37764 ft 479 kts 85°
2026-04-26 07:03 -20.65106 -45.68366 38025 ft 478 kts 85°
2026-04-26 07:03 -20.64814 -45.64849 38273 ft 478 kts 85°
2026-04-26 07:03 -20.64519 -45.61298 38522 ft 478 kts 85°
2026-04-26 07:03 -20.64229 -45.57830 38731 ft 477 kts 85°
2026-04-26 07:04 -20.63936 -45.54317 38939 ft 476 kts 85°
2026-04-26 07:04 -20.63636 -45.50744 39038 ft 476 kts 85°
2026-04-26 07:04 -20.63056 -45.43852 39045 ft 475 kts 85°
2026-04-26 07:05 -20.62461 -45.36806 39041 ft 475 kts 85°
2026-04-26 07:05 -20.61864 -45.29781 39049 ft 475 kts 85°
2026-04-26 07:06 -20.61266 -45.22784 39050 ft 475 kts 85°
2026-04-26 07:06 -20.60668 -45.15812 39047 ft 475 kts 85°
2026-04-26 07:07 -20.60067 -45.08835 39046 ft 475 kts 85°
2026-04-26 07:07 -20.59458 -45.01793 39048 ft 475 kts 85°
2026-04-26 07:08 -20.58847 -44.94766 39053 ft 475 kts 85°
2026-04-26 07:08 -20.58231 -44.87718 39049 ft 475 kts 85°
2026-04-26 07:09 -20.57614 -44.80698 39052 ft 476 kts 85°
2026-04-26 07:09 -20.56996 -44.73680 39054 ft 476 kts 85°
2026-04-26 07:11 -20.55434 -44.56123 39064 ft 476 kts 85°
2026-04-26 07:11 -20.54804 -44.49097 39064 ft 477 kts 85°
2026-04-26 07:12 -20.54174 -44.42091 39066 ft 477 kts 85°
2026-04-26 07:12 -20.53539 -44.35072 39067 ft 477 kts 85°
2026-04-26 07:13 -20.53002 -44.29161 39074 ft 477 kts 85°
2026-04-26 07:13 -20.52255 -44.20981 39073 ft 477 kts 85°
2026-04-26 07:14 -20.51714 -44.15071 39081 ft 477 kts 85°
2026-04-26 07:14 -20.50653 -44.08041 39074 ft 477 kts 75°
2026-04-26 07:15 -20.48321 -44.01423 39075 ft 476 kts 63°
2026-04-26 07:15 -20.45180 -43.95329 39074 ft 476 kts 60°
2026-04-26 07:16 -20.41932 -43.89035 39077 ft 476 kts 60°
2026-04-26 07:16 -20.38727 -43.82835 39079 ft 476 kts 60°
2026-04-26 07:17 -20.35545 -43.76693 39073 ft 476 kts 60°
2026-04-26 07:17 -20.32336 -43.70508 39074 ft 475 kts 60°
2026-04-26 07:18 -20.29134 -43.64344 39076 ft 475 kts 60°
2026-04-26 07:18 -20.25944 -43.58208 39071 ft 475 kts 60°
2026-04-26 07:19 -20.22735 -43.52043 39072 ft 475 kts 60°
2026-04-26 07:19 -20.19518 -43.45866 39066 ft 475 kts 60°
2026-04-26 07:20 -20.16326 -43.39746 39060 ft 474 kts 60°
2026-04-26 07:20 -20.13163 -43.33687 39063 ft 474 kts 60°
2026-04-26 07:21 -20.09979 -43.27547 39064 ft 473 kts 62°
2026-04-26 07:21 -20.07003 -43.21303 39060 ft 473 kts 63°
2026-04-26 07:22 -20.04025 -43.15018 39053 ft 473 kts 63°
2026-04-26 07:22 -20.01056 -43.08824 39049 ft 473 kts 62°
2026-04-26 07:23 -19.98119 -43.02583 39044 ft 473 kts 68°
2026-04-26 07:23 -19.96487 -42.95842 39036 ft 471 kts 85°
2026-04-26 07:24 -19.96688 -42.88917 39027 ft 469 kts 98°
2026-04-26 07:24 -19.97404 -42.82018 39026 ft 470 kts 97°
2026-04-26 07:25 -19.98099 -42.75101 39022 ft 470 kts 97°
2026-04-26 07:25 -19.98794 -42.68175 39016 ft 471 kts 97°
2026-04-26 07:26 -19.99484 -42.61282 39019 ft 471 kts 97°
2026-04-26 07:26 -20.00180 -42.54305 39024 ft 472 kts 97°
2026-04-26 07:27 -20.01030 -42.47394 39027 ft 472 kts 101°
2026-04-26 07:27 -20.02137 -42.40505 39032 ft 473 kts 101°
2026-04-26 07:28 -20.03184 -42.33742 39041 ft 473 kts 100°
2026-04-26 07:28 -20.04217 -42.26857 39051 ft 474 kts 100°
2026-04-26 07:29 -20.05005 -42.19873 39061 ft 475 kts 92°
2026-04-26 07:29 -20.04780 -42.12910 39062 ft 476 kts 86°
2026-04-26 07:30 -20.04366 -42.05931 39067 ft 476 kts 87°
2026-04-26 07:30 -20.03954 -41.98872 38523 ft 478 kts 87°
2026-04-26 07:30 -20.03745 -41.95334 37717 ft 482 kts 87°
2026-04-26 07:31 -20.03528 -41.91687 36742 ft 487 kts 87°
2026-04-26 07:31 -20.03310 -41.88064 35731 ft 495 kts 87°
2026-04-26 07:31 -20.03092 -41.84452 34957 ft 496 kts 87°
2026-04-26 07:31 -20.02870 -41.80782 34171 ft 498 kts 87°
2026-04-26 07:32 -20.02646 -41.77090 33289 ft 500 kts 88°
2026-04-26 07:32 -20.02422 -41.73406 32408 ft 501 kts 88°
2026-04-26 07:32 -20.02196 -41.69698 31581 ft 500 kts 87°
2026-04-26 07:32 -20.01971 -41.66007 30755 ft 501 kts 88°
2026-04-26 07:33 -20.01744 -41.62316 30236 ft 494 kts 88°
2026-04-26 07:33 -20.01520 -41.58689 29656 ft 487 kts 88°
2026-04-26 07:33 -20.01303 -41.55160 29049 ft 481 kts 87°
2026-04-26 07:33 -20.01083 -41.51611 28449 ft 476 kts 87°
2026-04-26 07:34 -20.00867 -41.48119 27840 ft 471 kts 87°
2026-04-26 07:34 -20.00652 -41.44665 27238 ft 466 kts 87°
2026-04-26 07:34 -20.00438 -41.41228 26606 ft 462 kts 87°
2026-04-26 07:34 -20.00226 -41.37845 25993 ft 458 kts 87°
2026-04-26 07:35 -20.00015 -41.34484 25452 ft 453 kts 87°
2026-04-26 07:35 -19.99804 -41.31141 24843 ft 450 kts 86°
2026-04-26 07:35 -19.99597 -41.27853 24242 ft 447 kts 86°
2026-04-26 07:35 -19.99389 -41.24570 23654 ft 443 kts 86°
2026-04-26 07:36 -19.99182 -41.21311 23067 ft 438 kts 86°
2026-04-26 07:36 -19.98979 -41.18138 22508 ft 432 kts 86°
2026-04-26 07:36 -19.98778 -41.14975 21934 ft 427 kts 86°
2026-04-26 07:36 -19.98577 -41.11840 21371 ft 422 kts 86°
2026-04-26 07:37 -19.98378 -41.08747 20807 ft 418 kts 86°
2026-04-26 07:37 -19.98180 -41.05665 20234 ft 414 kts 86°
2026-04-26 07:37 -19.97984 -41.02625 19654 ft 411 kts 86°
2026-04-26 07:37 -19.97787 -40.99596 19100 ft 408 kts 86°
2026-04-26 07:38 -19.97593 -40.96614 18538 ft 406 kts 86°
2026-04-26 07:38 -19.97400 -40.93642 17952 ft 402 kts 86°
2026-04-26 07:38 -19.97207 -40.90688 17441 ft 396 kts 86°
2026-04-26 07:38 -19.97016 -40.87780 16912 ft 392 kts 86°
2026-04-26 07:39 -19.96827 -40.84903 16370 ft 388 kts 86°
2026-04-26 07:39 -19.96638 -40.82049 15841 ft 384 kts 86°
2026-04-26 07:39 -19.96451 -40.79232 15317 ft 381 kts 86°
2026-04-26 07:39 -19.96264 -40.76421 14779 ft 378 kts 86°
2026-04-26 07:40 -19.96082 -40.73686 14239 ft 376 kts 86°
2026-04-26 07:40 -19.95898 -40.70899 13705 ft 373 kts 87°
2026-04-26 07:40 -19.95718 -40.68179 13215 ft 367 kts 87°
2026-04-26 07:40 -19.95539 -40.65509 12722 ft 362 kts 87°
2026-04-26 07:41 -19.95359 -40.62850 12229 ft 358 kts 87°
2026-04-26 07:41 -19.95182 -40.60221 11742 ft 354 kts 88°
2026-04-26 07:41 -19.95006 -40.57627 11252 ft 350 kts 88°
2026-04-26 07:41 -19.94833 -40.55082 10776 ft 347 kts 88°
2026-04-26 07:42 -19.94659 -40.52529 10393 ft 341 kts 88°
2026-04-26 07:42 -19.94493 -40.50073 10257 ft 327 kts 88°
2026-04-26 07:42 -19.94333 -40.47713 10141 ft 313 kts 88°
2026-04-26 07:42 -19.94177 -40.45442 9956 ft 303 kts 88°
2026-04-26 07:43 -19.94077 -40.43970 9742 ft 300 kts 89°
2026-04-26 07:43 -19.93929 -40.41791 9482 ft 293 kts 89°
2026-04-26 07:43 -19.93783 -40.39629 9122 ft 290 kts 88°
2026-04-26 07:43 -19.93639 -40.37501 8789 ft 287 kts 88°
2026-04-26 07:44 -19.93497 -40.35388 8434 ft 285 kts 88°
2026-04-26 07:44 -19.93357 -40.33336 8244 ft 277 kts 88°
2026-04-26 07:44 -19.93219 -40.31306 8096 ft 265 kts 88°
2026-04-26 07:44 -19.93091 -40.29435 7961 ft 249 kts 88°
2026-04-26 07:45 -19.92970 -40.27644 7902 ft 235 kts 88°
2026-04-26 07:45 -19.92853 -40.25955 7673 ft 227 kts 88°
2026-04-26 07:45 -19.92740 -40.24306 7419 ft 218 kts 88°
2026-04-26 07:45 -19.92633 -40.22730 7166 ft 211 kts 87°
2026-04-26 07:46 -19.92525 -40.21169 6888 ft 208 kts 87°
2026-04-26 07:46 -19.92419 -40.19645 6606 ft 206 kts 87°
2026-04-26 07:46 -19.92317 -40.18168 6315 ft 206 kts 87°
2026-04-26 07:46 -19.92560 -40.16694 6088 ft 204 kts 120°
2026-04-26 07:47 -19.93532 -40.15648 5840 ft 199 kts 155°
2026-04-26 07:47 -19.94849 -40.15322 5569 ft 197 kts 176°
2026-04-26 07:47 -19.96196 -40.15172 5463 ft 192 kts 176°
2026-04-26 07:47 -19.97509 -40.15015 5350 ft 187 kts 176°
2026-04-26 07:48 -19.98794 -40.14859 5130 ft 187 kts 175°
2026-04-26 07:48 -20.00091 -40.14694 4913 ft 186 kts 174°
2026-04-26 07:48 -20.01364 -40.14527 4714 ft 182 kts 174°
2026-04-26 07:48 -20.02599 -40.14370 4475 ft 177 kts 174°
2026-04-26 07:49 -20.03824 -40.14352 4155 ft 176 kts 196°
2026-04-26 07:49 -20.04910 -40.14933 3846 ft 175 kts 215°
2026-04-26 07:49 -20.05921 -40.15618 3641 ft 169 kts 214°
2026-04-26 07:50 -20.07978 -40.16975 3630 ft 176 kts 213°
2026-04-26 07:50 -20.09036 -40.17624 3559 ft 176 kts 213°
2026-04-26 07:50 -20.10075 -40.18299 3358 ft 172 kts 215°
2026-04-26 07:50 -20.11085 -40.18969 3131 ft 171 kts 214°
2026-04-26 07:51 -20.12085 -40.19630 2909 ft 170 kts 214°
2026-04-26 07:51 -20.13105 -40.20308 2690 ft 171 kts 214°
2026-04-26 07:51 -20.14121 -40.20972 2458 ft 175 kts 214°
2026-04-26 07:51 -20.15153 -40.21653 2228 ft 169 kts 216°
2026-04-26 07:52 -20.16118 -40.22289 2016 ft 158 kts 216°
2026-04-26 07:52 -20.17036 -40.22899 1812 ft 153 kts 216°
2026-04-26 07:52 -20.17950 -40.23500 1622 ft 161 kts 217°
2026-04-26 07:52 -20.18908 -40.24132 1399 ft 155 kts 217°
2026-04-26 07:53 -20.19783 -40.24709 1218 ft 141 kts 216°
2026-04-26 07:53 -20.20609 -40.25256 1037 ft 141 kts 217°
2026-04-26 07:53 -20.21430 -40.25838 845 ft 141 kts 216°
2026-04-26 07:53 -20.22246 -40.26370 657 ft 133 kts 212°
2026-04-26 07:54 -20.23035 -40.26869 522 ft 134 kts 213°
2026-04-26 07:54 -20.23812 -40.27386 362 ft 129 kts 213°
2026-04-26 07:54 -20.24551 -40.27872 190 ft 129 kts 213°
2026-04-26 07:54 -20.25374 -40.28409 31 ft 126 kts 213°
2026-04-26 07:55 -20.25962 -40.28797 22 ft 58 kts 210°
2026-04-26 07:55 -20.26214 -40.28962 24 ft 32 kts 211°
2026-04-26 07:55 -20.26366 -40.29063 23 ft 14 kts 212°
2026-04-26 07:55 -20.26361 -40.29126 22 ft 13 kts 346°
2026-04-26 07:56 -20.26262 -40.29146 23 ft 16 kts 355°
2026-04-26 07:56 -20.26163 -40.29109 23 ft 15 kts 31°
2026-04-26 07:56 -20.26066 -40.29046 23 ft 18 kts 32°
2026-04-26 07:56 -20.25987 -40.28992 23 ft 14 kts 33°
2026-04-26 07:57 -20.25907 -40.28937 24 ft 13 kts 32°
2026-04-26 07:57 -20.25823 -40.28881 22 ft 11 kts 32°
2026-04-26 07:57 -20.25783 -40.28881 24 ft 6 kts 316°
2026-04-26 07:57 -20.25777 -40.28889 24 ft 0 kts 311°